Time,TemperatureF,DewpointF,PressureIn,WindDirection,WindDirectionDegrees,WindSpeedMPH,WindSpeedGustMPH,Humidity,HourlyPrecipIn,Conditions,Clouds,dailyrainin,SolarRadiationWatts/m^2,SoftwareType,DateUTC
2013-11-11 00:03:00,46.0,24.0,-100.00,East,80,4.0,15.0,42,0.00,,,0.00,0.000000,,2013-11-11 06:03:00,
2013-11-11 00:42:00,43.0,24.0,-100.00,NE,43,4.0,9.0,46,0.00,,,0.00,0.000000,,2013-11-11 06:42:00,
2013-11-11 00:52:00,43.0,24.0,-100.00,NE,43,4.0,9.0,46,0.00,,,0.00,0.000000,,2013-11-11 06:52:00,
2013-11-11 01:02:00,43.0,24.0,-100.00,NE,43,4.0,9.0,46,0.00,,,0.00,0.000000,,2013-11-11 07:02:00,
2013-11-11 01:43:00,42.0,23.0,-100.00,North,5,2.0,9.0,47,0.00,,,0.00,0.000000,,2013-11-11 07:43:00,
2013-11-11 01:52:00,42.0,23.0,-100.00,North,5,2.0,9.0,47,0.00,,,0.00,0.000000,,2013-11-11 07:52:00,
2013-11-11 02:02:00,42.0,23.0,-100.00,North,5,2.0,9.0,47,0.00,,,0.00,0.000000,,2013-11-11 08:02:00,
2013-11-11 02:42:00,42.0,22.0,-100.00,ENE,65,3.0,8.0,45,0.00,,,0.00,0.000000,,2013-11-11 08:42:00,
2013-11-11 02:52:00,42.0,22.0,-100.00,ENE,65,3.0,8.0,45,0.00,,,0.00,0.000000,,2013-11-11 08:52:00,
2013-11-11 03:02:00,42.0,22.0,-100.00,ENE,65,3.0,8.0,45,0.00,,,0.00,0.000000,,2013-11-11 09:02:00,
2013-11-11 03:43:00,41.0,22.0,-100.00,East,87,4.0,10.0,46,0.00,,,0.00,0.000000,,2013-11-11 09:43:00,
2013-11-11 03:54:00,41.0,22.0,-100.00,East,87,4.0,10.0,46,0.00,,,0.00,0.000000,,2013-11-11 09:54:00,
2013-11-11 04:03:00,41.0,22.0,-100.00,East,87,4.0,10.0,46,0.00,,,0.00,0.000000,,2013-11-11 10:03:00,
2013-11-11 04:42:00,40.0,23.0,-100.00,NNE,28,5.0,11.0,50,0.00,,,0.00,0.000000,,2013-11-11 10:42:00,
2013-11-11 04:52:00,40.0,23.0,-100.00,NNE,28,5.0,11.0,50,0.00,,,0.00,0.000000,,2013-11-11 10:52:00,
2013-11-11 05:03:00,40.0,23.0,-100.00,NNE,28,5.0,11.0,50,0.00,,,0.00,0.000000,,2013-11-11 11:03:00,
2013-11-11 06:42:00,40.0,22.0,-100.00,NE,48,5.0,13.0,49,-99.99,,,-99.99,0.000000,,2013-11-11 12:42:00,
2013-11-11 06:52:00,40.0,22.0,-100.00,NE,48,5.0,13.0,49,-99.99,,,-99.99,0.000000,,2013-11-11 12:52:00,
2013-11-11 07:01:00,40.0,22.0,-100.00,NE,48,5.0,13.0,49,-99.99,,,-99.99,0.000000,,2013-11-11 13:01:00,
2013-11-11 07:42:00,41.0,25.0,-100.00,NNE,27,6.0,13.0,53,0.00,,,-99.99,22.000000,,2013-11-11 13:42:00,
2013-11-11 07:52:00,41.0,25.0,-100.00,NNE,27,6.0,13.0,53,0.00,,,-99.99,22.000000,,2013-11-11 13:52:00,
2013-11-11 08:02:00,41.0,25.0,-100.00,NNE,27,6.0,13.0,53,0.00,,,-99.99,22.000000,,2013-11-11 14:02:00,
2013-11-11 09:44:00,50.0,27.0,-100.00,ESE,120,7.0,12.0,40,0.00,,,0.00,366.000000,,2013-11-11 15:44:00,
2013-11-11 09:53:00,50.0,27.0,-100.00,ESE,120,7.0,12.0,40,0.00,,,0.00,366.000000,,2013-11-11 15:53:00,
2013-11-11 10:03:00,50.0,27.0,-100.00,ESE,120,7.0,12.0,40,0.00,,,0.00,366.000000,,2013-11-11 16:03:00,
2013-11-11 10:42:00,53.0,27.0,-100.00,SE,133,6.0,14.0,36,0.00,,,0.00,486.000000,,2013-11-11 16:42:00,
2013-11-11 10:53:00,53.0,27.0,-100.00,SE,133,6.0,14.0,36,0.00,,,0.00,486.000000,,2013-11-11 16:53:00,
2013-11-11 11:03:00,53.0,27.0,-100.00,SE,133,6.0,14.0,36,0.00,,,0.00,486.000000,,2013-11-11 17:03:00,
2013-11-11 11:42:00,57.0,25.0,-100.00,SE,139,5.0,11.0,29,0.00,,,0.00,556.000000,,2013-11-11 17:42:00,
2013-11-11 11:52:00,57.0,25.0,-100.00,SE,139,5.0,11.0,29,0.00,,,0.00,556.000000,,2013-11-11 17:52:00,
2013-11-11 12:02:00,57.0,25.0,-100.00,SE,139,5.0,11.0,29,0.00,,,0.00,556.000000,,2013-11-11 18:02:00,
2013-11-11 12:42:00,59.0,27.0,-100.00,SE,137,4.0,10.0,29,0.00,,,0.00,569.000000,,2013-11-11 18:42:00,
2013-11-11 12:52:00,59.0,27.0,-100.00,SE,137,4.0,10.0,29,0.00,,,0.00,569.000000,,2013-11-11 18:52:00,
2013-11-11 13:01:00,59.0,27.0,-100.00,SE,137,4.0,10.0,29,0.00,,,0.00,569.000000,,2013-11-11 19:01:00,
2013-11-11 13:42:00,62.0,29.0,-100.00,SE,131,4.0,8.0,28,0.00,,,0.00,528.000000,,2013-11-11 19:42:00,
2013-11-11 13:53:00,62.0,29.0,-100.00,SE,131,4.0,8.0,28,0.00,,,0.00,528.000000,,2013-11-11 19:53:00,
2013-11-11 14:02:00,62.0,29.0,-100.00,SE,131,4.0,8.0,28,0.00,,,0.00,528.000000,,2013-11-11 20:02:00,
2013-11-11 14:42:00,64.0,26.0,-100.00,South,171,4.0,8.0,24,0.00,,,0.00,428.000000,,2013-11-11 20:42:00,
2013-11-11 14:52:00,64.0,26.0,-100.00,South,171,4.0,8.0,24,0.00,,,0.00,428.000000,,2013-11-11 20:52:00,
2013-11-11 15:02:00,64.0,26.0,-100.00,South,171,4.0,8.0,24,0.00,,,0.00,428.000000,,2013-11-11 21:02:00,
2013-11-11 16:43:00,59.0,23.0,-100.00,SSW,210,2.0,9.0,25,0.00,,,0.00,57.000000,,2013-11-11 22:43:00,
2013-11-11 16:53:00,59.0,23.0,-100.00,SSW,210,2.0,9.0,25,0.00,,,0.00,57.000000,,2013-11-11 22:53:00,
2013-11-11 17:03:00,59.0,23.0,-100.00,SSW,210,2.0,9.0,25,0.00,,,0.00,57.000000,,2013-11-11 23:03:00,
2013-11-11 17:43:00,56.0,25.0,-100.00,South,179,2.0,6.0,30,0.00,,,0.00,6.000000,,2013-11-11 23:43:00,
2013-11-11 17:53:00,56.0,25.0,-100.00,South,179,2.0,6.0,30,0.00,,,0.00,6.000000,,2013-11-11 23:53:00,
2013-11-11 18:03:00,56.0,25.0,-100.00,South,179,2.0,6.0,30,0.00,,,0.00,6.000000,,2013-11-12 00:03:00,
2013-11-11 18:42:00,55.0,26.0,-100.00,SE,145,4.0,6.0,33,0.00,,,0.00,0.000000,,2013-11-12 00:42:00,
2013-11-11 18:52:00,55.0,26.0,-100.00,SE,145,4.0,6.0,33,0.00,,,0.00,0.000000,,2013-11-12 00:52:00,
2013-11-11 19:01:00,55.0,26.0,-100.00,SE,145,4.0,6.0,33,0.00,,,0.00,0.000000,,2013-11-12 01:01:00,
2013-11-11 19:42:00,55.0,28.0,-100.00,South,187,2.0,5.0,35,0.00,,,0.00,0.000000,,2013-11-12 01:42:00,
2013-11-11 19:52:00,55.0,28.0,-100.00,South,187,2.0,5.0,35,0.00,,,0.00,0.000000,,2013-11-12 01:52:00,
2013-11-11 20:01:00,55.0,28.0,-100.00,South,187,2.0,5.0,35,0.00,,,0.00,0.000000,,2013-11-12 02:01:00,
2013-11-11 20:42:00,55.0,26.0,-100.00,WSW,240,4.0,7.0,32,0.00,,,0.00,0.000000,,2013-11-12 02:42:00,
2013-11-11 20:52:00,55.0,26.0,-100.00,WSW,240,4.0,7.0,32,0.00,,,0.00,0.000000,,2013-11-12 02:52:00,
2013-11-11 21:02:00,55.0,26.0,-100.00,WSW,240,4.0,7.0,32,0.00,,,0.00,0.000000,,2013-11-12 03:02:00,
2013-11-11 21:45:00,54.0,22.0,-100.00,WSW,244,4.0,7.0,29,0.00,,,0.00,0.000000,,2013-11-12 03:45:00,
2013-11-11 21:54:00,54.0,22.0,-100.00,WSW,244,4.0,7.0,29,0.00,,,0.00,0.000000,,2013-11-12 03:54:00,
2013-11-11 22:05:00,54.0,22.0,-100.00,WSW,244,4.0,7.0,29,0.00,,,0.00,0.000000,,2013-11-12 04:05:00,
2013-11-11 22:44:00,54.0,21.0,-100.00,WSW,239,4.0,9.0,27,0.00,,,0.00,0.000000,,2013-11-12 04:44:00,
2013-11-11 22:53:00,54.0,21.0,-100.00,WSW,239,4.0,9.0,27,0.00,,,0.00,0.000000,,2013-11-12 04:53:00,
2013-11-11 23:03:00,54.0,21.0,-100.00,WSW,239,4.0,9.0,27,0.00,,,0.00,0.000000,,2013-11-12 05:03:00,
2013-11-11 23:44:00,54.0,21.0,-100.00,NW,304,3.0,8.0,27,0.00,,,0.00,0.000000,,2013-11-12 05:44:00,
2013-11-11 23:54:00,54.0,21.0,-100.00,NW,304,3.0,8.0,27,0.00,,,0.00,0.000000,,2013-11-12 05:54:00,